TimeEST,TemperatureF,Dew PointF,Humidity,Sea Level PressureIn,VisibilityMPH,Wind Direction,Wind SpeedMPH,Gust SpeedMPH,PrecipitationIn,Events,Conditions,WindDirDegrees,DateUTC
12:15 AM,22.1,18.5,86,29.70,1.8,NNW,4.6,-,N/A,Snow,Light Snow,330,2013-03-03 05:15:00
12:35 AM,21.9,18.5,87,29.69,2.0,Calm,Calm,-,N/A,Snow,Light Snow,0,2013-03-03 05:35:00
1:15 AM,21.9,18.5,87,29.69,2.5,Calm,Calm,-,N/A,Snow,Light Snow,0,2013-03-03 06:15:00
1:35 AM,21.7,18.1,86,29.69,2.5,NW,3.5,-,N/A,Snow,Light Snow,310,2013-03-03 06:35:00
1:55 AM,21.6,18.1,87,29.69,2.0,NW,3.5,-,N/A,Snow,Light Snow,310,2013-03-03 06:55:00
2:35 AM,21.7,18.5,87,29.68,2.0,Calm,Calm,-,N/A,Snow,Light Snow,0,2013-03-03 07:35:00
2:55 AM,21.6,18.1,87,29.68,2.0,NW,3.5,-,N/A,Snow,Light Snow,320,2013-03-03 07:55:00
3:15 AM,21.4,17.6,85,29.68,4.0,NW,3.5,-,N/A,Snow,Light Snow,320,2013-03-03 08:15:00
3:35 AM,21.6,17.6,85,29.67,10.0,NW,4.6,-,N/A,,Overcast,320,2013-03-03 08:35:00
3:55 AM,21.6,17.4,84,29.67,7.0,Calm,Calm,-,N/A,,Overcast,0,2013-03-03 08:55:00
4:15 AM,21.4,17.6,85,29.67,5.0,NW,3.5,-,N/A,,Overcast,310,2013-03-03 09:15:00
4:35 AM,21.2,17.6,86,29.68,10.0,Calm,Calm,-,N/A,,Overcast,0,2013-03-03 09:35:00
4:55 AM,21.2,17.6,86,29.68,10.0,Calm,Calm,-,N/A,,Overcast,0,2013-03-03 09:55:00
5:15 AM,21.2,18.0,87,29.68,4.0,NW,3.5,-,N/A,,Overcast,310,2013-03-03 10:15:00
5:35 AM,21.2,18.3,89,29.68,3.0,Calm,Calm,-,N/A,,Overcast,0,2013-03-03 10:35:00
5:55 AM,21.2,18.5,89,29.68,3.0,Calm,Calm,-,N/A,Snow,Light Snow,0,2013-03-03 10:55:00
6:15 AM,21.2,18.5,89,29.67,3.0,Calm,Calm,-,N/A,Snow,Light Snow,0,2013-03-03 11:15:00
6:55 AM,21.2,18.5,89,29.67,3.0,WNW,4.6,-,N/A,Snow,Light Snow,290,2013-03-03 11:55:00
7:15 AM,21.2,18.1,88,29.68,1.0,WNW,4.6,-,N/A,Snow,Light Snow,300,2013-03-03 12:15:00
7:55 AM,21.9,18.5,87,29.68,3.0,NW,3.5,-,N/A,Snow,Light Snow,310,2013-03-03 12:55:00
8:15 AM,22.5,19.0,87,29.68,1.0,Calm,Calm,-,N/A,Snow,Light Snow,0,2013-03-03 13:15:00
8:35 AM,22.6,18.9,85,29.68,2.0,NW,3.5,-,N/A,Snow,Light Snow,320,2013-03-03 13:35:00
8:55 AM,23.0,18.9,84,29.67,2.0,NNW,4.6,-,N/A,Snow,Light Snow,330,2013-03-03 13:55:00
9:15 AM,23.5,19.2,84,29.67,3.0,NNW,4.6,-,N/A,Snow,Light Snow,340,2013-03-03 14:15:00
9:35 AM,23.7,19.2,83,29.67,3.0,NW,5.8,-,N/A,Snow,Light Snow,320,2013-03-03 14:35:00
9:55 AM,23.9,18.9,81,29.66,3.0,NW,6.9,-,N/A,Snow,Light Snow,320,2013-03-03 14:55:00
10:15 AM,23.9,18.7,80,29.66,5.0,NW,5.8,-,N/A,Snow,Light Snow,320,2013-03-03 15:15:00
10:35 AM,24.8,19.0,79,29.66,10.0,WNW,6.9,-,N/A,,Overcast,300,2013-03-03 15:35:00
10:55 AM,25.2,18.9,77,29.65,10.0,WNW,6.9,-,N/A,,Overcast,290,2013-03-03 15:55:00
11:15 AM,25.3,19.0,77,29.65,10.0,NW,3.5,-,N/A,,Overcast,310,2013-03-03 16:15:00
11:35 AM,26.1,19.4,76,29.65,10.0,NNW,3.5,-,N/A,,Overcast,330,2013-03-03 16:35:00
11:55 AM,26.2,19.6,76,29.65,10.0,WNW,5.8,-,N/A,,Overcast,290,2013-03-03 16:55:00
12:15 PM,26.1,19.4,76,29.64,10.0,NW,5.8,-,N/A,,Overcast,320,2013-03-03 17:15:00
12:35 PM,26.2,19.8,76,29.63,7.0,WNW,5.8,-,N/A,,Overcast,300,2013-03-03 17:35:00
12:55 PM,25.7,19.9,79,29.63,7.0,Calm,Calm,-,N/A,,Overcast,0,2013-03-03 17:55:00
1:15 PM,26.2,20.3,78,29.63,10.0,WNW,5.8,-,N/A,,Overcast,300,2013-03-03 18:15:00
1:35 PM,26.2,20.1,78,29.63,10.0,North,6.9,-,N/A,,Overcast,350,2013-03-03 18:35:00
1:55 PM,26.1,20.1,78,29.63,10.0,NNW,6.9,-,N/A,,Overcast,330,2013-03-03 18:55:00
2:15 PM,26.2,20.1,78,29.63,10.0,NNW,8.1,-,N/A,,Overcast,340,2013-03-03 19:15:00
2:35 PM,26.1,20.3,79,29.63,10.0,NNW,9.2,-,N/A,,Overcast,330,2013-03-03 19:35:00
2:55 PM,25.5,20.3,81,29.63,10.0,NNW,8.1,-,N/A,,Overcast,340,2013-03-03 19:55:00
3:35 PM,24.6,19.9,82,29.63,10.0,NNW,9.2,-,N/A,,Overcast,330,2013-03-03 20:35:00
3:55 PM,24.4,19.9,83,29.63,10.0,NNW,6.9,-,N/A,,Overcast,330,2013-03-03 20:55:00
4:35 PM,24.8,19.4,80,29.63,10.0,NW,6.9,-,N/A,,Overcast,320,2013-03-03 21:35:00
4:55 PM,24.8,19.2,79,29.63,10.0,NW,8.1,-,N/A,,Overcast,320,2013-03-03 21:55:00
5:15 PM,24.4,18.9,79,29.64,10.0,NW,3.5,-,N/A,,Overcast,310,2013-03-03 22:15:00
5:35 PM,24.3,18.7,79,29.64,10.0,NW,5.8,-,N/A,,Overcast,320,2013-03-03 22:35:00
5:55 PM,23.9,18.5,80,29.65,10.0,NW,4.6,-,N/A,,Overcast,310,2013-03-03 22:55:00
6:15 PM,23.9,17.6,77,29.65,10.0,WNW,5.8,-,N/A,,Overcast,300,2013-03-03 23:15:00
6:35 PM,23.9,17.6,77,29.65,10.0,NW,5.8,-,N/A,,Overcast,310,2013-03-03 23:35:00
6:55 PM,23.9,17.6,77,29.65,10.0,WNW,9.2,-,N/A,,Overcast,290,2013-03-03 23:55:00
7:15 PM,23.9,17.8,77,29.65,10.0,WNW,6.9,-,N/A,,Overcast,290,2013-03-04 00:15:00
7:35 PM,23.9,17.6,77,29.65,10.0,WNW,5.8,-,N/A,,Overcast,290,2013-03-04 00:35:00
7:55 PM,23.7,17.6,77,29.65,10.0,WNW,6.9,-,N/A,,Overcast,300,2013-03-04 00:55:00
8:15 PM,23.9,17.6,77,29.65,10.0,WNW,5.8,-,N/A,,Overcast,290,2013-03-04 01:15:00
8:35 PM,23.9,17.6,77,29.65,10.0,WNW,4.6,-,N/A,,Overcast,290,2013-03-04 01:35:00
8:55 PM,23.9,17.6,77,29.65,10.0,Calm,Calm,-,N/A,,Overcast,0,2013-03-04 01:55:00
9:15 PM,23.9,18.1,79,29.65,10.0,West,3.5,-,N/A,,Overcast,280,2013-03-04 02:15:00
9:35 PM,23.5,18.1,80,29.64,10.0,Calm,Calm,-,N/A,,Overcast,0,2013-03-04 02:35:00
9:55 PM,23.2,18.3,82,29.64,10.0,NW,4.6,-,N/A,,Overcast,310,2013-03-04 02:55:00
10:15 PM,23.5,17.8,79,29.64,10.0,WNW,3.5,-,N/A,,Overcast,290,2013-03-04 03:15:00
10:35 PM,23.4,18.1,80,29.63,10.0,South,3.5,-,N/A,,Overcast,170,2013-03-04 03:35:00
10:55 PM,23.5,17.6,78,29.63,10.0,WNW,4.6,-,N/A,,Overcast,290,2013-03-04 03:55:00
11:15 PM,23.5,17.4,77,29.63,10.0,West,6.9,-,N/A,,Overcast,280,2013-03-04 04:15:00
11:35 PM,23.4,17.2,77,29.63,10.0,West,5.8,-,N/A,,Overcast,260,2013-03-04 04:35:00
11:55 PM,23.0,16.7,77,29.63,10.0,West,6.9,-,N/A,,Overcast,260,2013-03-04 04:55:00